Weather History for Cecil Field, FL

Change the Weather History Date:

Sunday, July 28, 2013

  Actual Average (KJAX) Record (KJAX)
Temperature  
Mean Temperature 80 °F 83 °F  
Max Temperature 89 °F 92 °F 104 °F (1872)
Min Temperature 71 °F 73 °F 67 °F (1920)
Degree Days  
Heating Degree Days 0 0  
Month to date heating degree days 0  
Since 1 June heating degree days 0  
Since 1 July heating degree days 0  
Cooling Degree Days 15 18  
Month to date cooling degree days 486  
Year to date cooling degree days 1419  
Since 1 June cooling degree days 935  
Growing Degree Days 30 (Base 50)    
Moisture  
Dew Point 74 °F    
Average Humidity 95    
Maximum Humidity 100    
Minimum Humidity 59    
Precipitation  
Precipitation 0.00 in 0.20 in 4.46 in (1926)
Month to date precipitation 5.94  
Year to date precipitation 27.95  
Snow  
Snow 0.00 in 0.00 in 0.00 in (2002)
Month to date snowfall 0.0  
Since 1 June snowfall 0.0  
Since 1 July snowfall 0.0  
Snow Depth -    
Sea Level Pressure  
Sea Level Pressure 29.99 in    
Wind  
Wind Speed 2 mph (SSW)    
Max Wind Speed 10 mph    
Max Gust Speed -    
Visibility 7 miles    
Events      
T = Trace of Precipitation, MM = Missing Value Source: NWS Daily Summary

Daily Weather History Graph

Daily Weather History Graph

Search for Another Location

Airport:

Trip Planner

Search our weather history database for the weather conditions in past years. The results will help you decide how hot, cold, wet, or windy it might be!

Date:

Astronomy

Jul. 28, 2013 Rise Set
Actual Time 6:43 AM EDT 8:23 PM EDT
Civil Twilight 6:17 AM EDT 8:49 PM EDT
Nautical Twilight 5:46 AM EDT 9:21 PM EDT
Astronomical Twilight 5:12 AM EDT 9:54 PM EDT
Moon No Moon Rise 12:51 PM EDT (7/28)
Length of Visible Light 14h 32m
Length of Day
13h 39m
Waning Gibbous, 61% of the Moon is Illuminated
Jul 28
Waning Gibbous
Jul 29
Last Quarter
Aug 6
New
Aug 14
First Quarter
Aug 20
Full

Hourly Weather History & Observations

Time (EDT) Temp. Heat Index Dew Point Humidity Pressure Visibility Wind Dir Wind Speed Gust Speed Precip Events Conditions
12:15 AM 73.4 °F - 73.4 °F 100% 29.95 in 7.0 mi Calm Calm - N/A   Clear
12:35 AM 71.6 °F - 71.6 °F 100% 29.95 in 8.0 mi Calm Calm - N/A   Clear
12:55 AM 73.4 °F - 73.4 °F 100% 29.95 in 9.0 mi Calm Calm - N/A   Clear
1:15 AM 73.4 °F - 73.4 °F 100% 29.95 in 8.0 mi Calm Calm - N/A   Clear
1:35 AM 73.4 °F - 73.4 °F 100% 29.95 in 7.0 mi South 3.5 mph - N/A   Clear
1:55 AM 73.4 °F - 73.4 °F 100% 29.95 in 9.0 mi Calm Calm - N/A   Clear
2:15 AM 73.4 °F - 73.4 °F 100% 29.94 in 8.0 mi Calm Calm - N/A   Clear
2:35 AM 75.2 °F - 73.4 °F 94% 29.94 in 10.0 mi SSW 5.8 mph - N/A   Clear
2:55 AM 75.2 °F - 73.4 °F 94% 29.94 in 10.0 mi SW 6.9 mph - N/A   Clear
3:15 AM 75.2 °F - 73.4 °F 94% 29.94 in 10.0 mi SW 4.6 mph - N/A   Clear
3:35 AM 75.2 °F - 73.4 °F 94% 29.94 in 9.0 mi SSW 5.8 mph - N/A   Clear
3:55 AM 73.4 °F - 73.4 °F 100% 29.94 in 7.0 mi SSW 4.6 mph - N/A   Clear
4:15 AM 73.4 °F - 73.4 °F 100% 29.94 in 6.0 mi Calm Calm - N/A   Clear
4:35 AM 73.4 °F - 73.4 °F 100% 29.94 in 5.0 mi Calm Calm - N/A   Clear
4:55 AM 71.6 °F - 71.6 °F 100% 29.95 in 5.0 mi Calm Calm - N/A   Clear
5:15 AM 71.6 °F - 71.6 °F 100% 29.95 in 5.0 mi Calm Calm - N/A   Clear
5:35 AM 71.6 °F - 71.6 °F 100% 29.96 in 3.0 mi Calm Calm - N/A   Clear
5:55 AM 71.6 °F - 71.6 °F 100% 29.96 in 3.0 mi Calm Calm - N/A   Clear
6:15 AM 71.6 °F - 71.6 °F 100% 29.96 in 3.0 mi Calm Calm - N/A   Clear
6:35 AM 71.6 °F - 71.6 °F 100% 29.97 in 3.0 mi Calm Calm - N/A   Clear
6:50 AM 73.4 °F - 73.4 °F 100% 29.97 in 5.0 mi Calm Calm - N/A   Clear
7:50 AM 73.4 °F - 73.4 °F 100% 29.98 in 5.0 mi Calm Calm - N/A   Clear
8:50 AM 75.2 °F - 75.2 °F 100% 30.00 in 5.0 mi Calm Calm - N/A   Clear
9:50 AM 77.0 °F - 75.2 °F 94% 30.00 in 7.0 mi West 5.8 mph - N/A   Clear
10:50 AM 80.6 °F 86.2 °F 75.2 °F 84% 30.01 in 10.0 mi West 5.8 mph - N/A   Clear
11:50 AM 82.4 °F 89.5 °F 75.2 °F 79% 30.02 in 10.0 mi Calm Calm - N/A   Clear
12:50 PM 86.0 °F 95.1 °F 75.2 °F 70% 30.01 in 10.0 mi Calm Calm - N/A   Clear
1:50 PM 86.0 °F 93.4 °F 73.4 °F 66% 30.00 in 10.0 mi Calm Calm - N/A   Partly Cloudy
2:50 PM 89.6 °F 98.2 °F 73.4 °F 59% 30.00 in 10.0 mi Variable 3.5 mph - N/A   Mostly Cloudy
3:50 PM 73.4 °F - 71.6 °F 94% 29.98 in 10.0 mi Variable 3.5 mph - N/A   Mostly Cloudy
4:50 PM 87.8 °F 97.6 °F 75.2 °F 66% 29.99 in 10.0 mi Variable 3.5 mph - N/A   Mostly Cloudy
5:50 PM 82.4 °F 88.2 °F 73.4 °F 74% 29.99 in 10.0 mi SSE 10.4 mph - N/A   Mostly Cloudy
6:50 PM 77.0 °F - 75.2 °F 94% 30.01 in 10.0 mi SSE 10.4 mph - N/A   Mostly Cloudy
7:50 PM 77.0 °F - 75.2 °F 94% 30.02 in 10.0 mi SSE 4.6 mph - N/A   Clear
8:15 PM 75.2 °F - 75.2 °F 100% 30.03 in 7.0 mi SE 3.5 mph - N/A   Clear
8:35 PM 75.2 °F - 75.2 °F 100% 30.04 in 8.0 mi Calm Calm - N/A   Clear
8:55 PM 75.2 °F - 75.2 °F 100% 30.04 in 8.0 mi Calm Calm - N/A   Clear
9:15 PM 75.2 °F - 75.2 °F 100% 30.04 in 4.0 mi Calm Calm - N/A   Clear
9:35 PM 73.4 °F - 73.4 °F 100% 30.05 in 6.0 mi Calm Calm - N/A   Clear
9:55 PM 75.2 °F - 75.2 °F 100% 30.05 in 8.0 mi Calm Calm - N/A   Clear
10:15 PM 73.4 °F - 73.4 °F 100% 30.05 in 6.0 mi Calm Calm - N/A   Clear
10:35 PM 73.4 °F - 73.4 °F 100% 30.05 in 5.0 mi SSE 3.5 mph - N/A   Clear
10:55 PM 73.4 °F - 73.4 °F 100% 30.06 in 9.0 mi Calm Calm - N/A   Clear
11:15 PM 73.4 °F - 73.4 °F 100% 30.07 in 9.0 mi Calm Calm - N/A   Clear
11:35 PM 73.4 °F - 73.4 °F 100% 30.07 in 10.0 mi Calm Calm - N/A   Clear
11:55 PM 73.4 °F - 73.4 °F 100% 30.06 in 3.0 mi Calm Calm - N/A   Clear